{"data":{"norad_id":49145,"epoch":"2026-05-25T02:11:08.656224Z","epoch_age_seconds":63804,"freshness":"FRESH","line1":"1 49145U 21082R   26145.09107241  .00000015  00000+0  90675-5 0  9995","line2":"2 49145  70.0008  61.8086 0002891 267.2128  92.8700 14.98331117258400","mean_motion":14.98331117,"eccentricity":0.0002891,"inclination_deg":70.0008,"raan_deg":61.8086,"arg_perigee_deg":267.2128,"mean_anomaly_deg":92.87,"bstar":9.0675e-6,"rev_number":25840,"period_min":96.106927478301,"perigee_km":570.04313695005,"apogee_km":574.06173648236,"semimajor_km":6950.1894367162,"source":"CELESTRAK","updated_at":"2026-05-25T13:38:16.786730Z"}}